Year,Month,Day,Hour,Minute,Value (Times are PST for temperature in C)
2009,07,04,00,00,18.30
2009,07,04,00,01,18.20
2009,07,04,00,02,18.20
2009,07,04,00,03,18.20
2009,07,04,00,04,18.20
2009,07,04,00,05,18.20
2009,07,04,00,06,18.20
2009,07,04,00,07,18.20
2009,07,04,00,08,18.20
2009,07,04,00,09,18.20
2009,07,04,00,10,18.20
2009,07,04,00,11,18.30
2009,07,04,00,12,18.30
2009,07,04,00,13,18.30
2009,07,04,00,14,18.30
2009,07,04,00,15,18.30
2009,07,04,00,16,18.20
2009,07,04,00,17,18.20
2009,07,04,00,18,18.20
2009,07,04,00,19,18.20
2009,07,04,00,20,18.20
2009,07,04,00,21,18.20
2009,07,04,00,22,18.20
2009,07,04,00,23,18.20
2009,07,04,00,24,18.10
2009,07,04,00,25,18.10
2009,07,04,00,26,18.10
2009,07,04,00,27,18.10
2009,07,04,00,28,18.10
2009,07,04,00,29,18.00
2009,07,04,00,30,18.00
2009,07,04,00,31,17.90
2009,07,04,00,32,17.90
2009,07,04,00,33,17.80
2009,07,04,00,34,17.80
2009,07,04,00,35,17.80
2009,07,04,00,36,17.80
2009,07,04,00,37,17.70
2009,07,04,00,38,17.70
2009,07,04,00,39,17.70
2009,07,04,00,40,17.70
2009,07,04,00,41,17.70
2009,07,04,00,42,17.60
2009,07,04,00,43,17.60
2009,07,04,00,44,17.60
2009,07,04,00,45,17.50
2009,07,04,00,46,17.50
2009,07,04,00,47,17.40
2009,07,04,00,48,17.40
2009,07,04,00,49,17.30
2009,07,04,00,50,17.30
2009,07,04,00,51,17.20
2009,07,04,00,52,17.20
2009,07,04,00,53,17.10
2009,07,04,00,54,17.10
2009,07,04,00,55,17.00
2009,07,04,00,56,17.00
2009,07,04,00,57,16.90
2009,07,04,00,58,16.90
2009,07,04,00,59,16.90
2009,07,04,01,00,16.90
2009,07,04,01,01,16.90
2009,07,04,01,02,16.80
2009,07,04,01,03,16.80
2009,07,04,01,04,16.80
2009,07,04,01,05,16.70
2009,07,04,01,06,16.70
2009,07,04,01,07,16.70
2009,07,04,01,08,16.70
2009,07,04,01,09,16.70
2009,07,04,01,10,16.70
2009,07,04,01,11,16.70
2009,07,04,01,12,16.70
2009,07,04,01,13,16.70
2009,07,04,01,14,16.70
2009,07,04,01,15,16.70
2009,07,04,01,16,16.70
2009,07,04,01,17,16.70
2009,07,04,01,18,16.70
2009,07,04,01,19,16.70
2009,07,04,01,20,16.70
2009,07,04,01,21,16.80
2009,07,04,01,22,16.80
2009,07,04,01,23,16.80
2009,07,04,01,24,16.80
2009,07,04,01,25,16.80
2009,07,04,01,26,16.90
2009,07,04,01,27,16.90
2009,07,04,01,28,16.90
2009,07,04,01,29,16.90
2009,07,04,01,30,16.90
2009,07,04,01,31,16.90
2009,07,04,01,32,17.00
2009,07,04,01,33,17.00
2009,07,04,01,34,17.00
2009,07,04,01,35,17.00
2009,07,04,01,36,17.00
2009,07,04,01,37,17.00
2009,07,04,01,38,17.00
2009,07,04,01,39,17.00
2009,07,04,01,40,17.10
2009,07,04,01,41,17.10
2009,07,04,01,42,17.10
2009,07,04,01,43,17.10
2009,07,04,01,44,17.10
2009,07,04,01,45,17.00
2009,07,04,01,46,17.00
2009,07,04,01,47,17.00
2009,07,04,01,48,16.90
2009,07,04,01,49,16.90
2009,07,04,01,50,16.90
2009,07,04,01,51,16.90
2009,07,04,01,52,16.80
2009,07,04,01,53,16.80
2009,07,04,01,54,16.80
2009,07,04,01,55,16.70
2009,07,04,01,56,16.70
2009,07,04,01,57,16.70
2009,07,04,01,58,16.60
2009,07,04,01,59,16.60
2009,07,04,02,00,16.60
2009,07,04,02,01,16.60
2009,07,04,02,02,16.60
2009,07,04,02,03,16.60
2009,07,04,02,04,16.50
2009,07,04,02,05,16.50
2009,07,04,02,06,16.50
2009,07,04,02,07,16.40
2009,07,04,02,08,16.40
2009,07,04,02,09,16.40
2009,07,04,02,10,16.40
2009,07,04,02,11,16.40
2009,07,04,02,12,16.40
2009,07,04,02,13,16.30
2009,07,04,02,14,16.30
2009,07,04,02,15,16.30
2009,07,04,02,16,16.30
2009,07,04,02,17,16.30
2009,07,04,02,18,16.30
2009,07,04,02,19,16.30
2009,07,04,02,20,16.30
2009,07,04,02,21,16.20
2009,07,04,02,22,16.20
2009,07,04,02,23,16.20
2009,07,04,02,24,16.20
2009,07,04,02,25,16.20
2009,07,04,02,26,16.20
2009,07,04,02,27,16.20
2009,07,04,02,28,16.20
2009,07,04,02,29,16.20
2009,07,04,02,30,16.10
2009,07,04,02,31,16.10
2009,07,04,02,32,16.10
2009,07,04,02,33,16.10
2009,07,04,02,34,16.00
2009,07,04,02,35,16.00
2009,07,04,02,36,15.90
2009,07,04,02,37,15.90
2009,07,04,02,38,15.90
2009,07,04,02,39,15.80
2009,07,04,02,40,15.80
2009,07,04,02,41,15.80
2009,07,04,02,42,15.80
2009,07,04,02,43,15.80
2009,07,04,02,44,15.70
2009,07,04,02,45,15.70
2009,07,04,02,46,15.70
2009,07,04,02,47,15.70
2009,07,04,02,48,15.70
2009,07,04,02,49,15.70
2009,07,04,02,50,15.60
2009,07,04,02,51,15.60
2009,07,04,02,52,15.60
2009,07,04,02,53,15.60
2009,07,04,02,54,15.60
2009,07,04,02,55,15.60
2009,07,04,02,56,15.50
2009,07,04,02,57,15.50
2009,07,04,02,58,15.50
2009,07,04,02,59,15.40
2009,07,04,03,00,15.40
2009,07,04,03,01,15.40
2009,07,04,03,02,15.40
2009,07,04,03,03,15.40
2009,07,04,03,04,15.40
2009,07,04,03,05,15.40
2009,07,04,03,06,15.40
2009,07,04,03,07,15.40
2009,07,04,03,08,15.30
2009,07,04,03,09,15.30
2009,07,04,03,10,15.30
2009,07,04,03,11,15.20
2009,07,04,03,12,15.20
2009,07,04,03,13,15.20
2009,07,04,03,14,15.10
2009,07,04,03,15,15.10
2009,07,04,03,16,15.10
2009,07,04,03,17,15.00
2009,07,04,03,18,15.00
2009,07,04,03,19,15.00
2009,07,04,03,20,15.00
2009,07,04,03,21,15.00
2009,07,04,03,22,15.00
2009,07,04,03,23,15.00
2009,07,04,03,24,15.00
2009,07,04,03,25,15.00
2009,07,04,03,26,14.90
2009,07,04,03,27,14.90
2009,07,04,03,28,14.80
2009,07,04,03,29,14.80
2009,07,04,03,30,14.80
2009,07,04,03,31,14.80
2009,07,04,03,32,14.80
2009,07,04,03,33,14.80
2009,07,04,03,34,14.80
2009,07,04,03,35,14.80
2009,07,04,03,36,14.80
2009,07,04,03,37,14.80
2009,07,04,03,38,14.80
2009,07,04,03,39,14.80
2009,07,04,03,40,14.90
2009,07,04,03,41,14.90
2009,07,04,03,42,14.90
2009,07,04,03,43,14.90
2009,07,04,03,44,14.80
2009,07,04,03,45,14.80
2009,07,04,03,46,14.80
2009,07,04,03,47,14.70
2009,07,04,03,48,14.70
2009,07,04,03,49,14.70
2009,07,04,03,50,14.70
2009,07,04,03,51,14.60
2009,07,04,03,52,14.60
2009,07,04,03,53,14.60
2009,07,04,03,54,14.60
2009,07,04,03,55,14.60
2009,07,04,03,56,14.50
2009,07,04,03,57,14.50
2009,07,04,03,58,14.50
2009,07,04,03,59,14.50
2009,07,04,04,00,14.40
2009,07,04,04,01,14.40
2009,07,04,04,02,14.40
2009,07,04,04,03,14.40
2009,07,04,04,04,14.40
2009,07,04,04,05,14.40
2009,07,04,04,06,14.40
2009,07,04,04,07,14.30
2009,07,04,04,08,14.30
2009,07,04,04,09,14.30
2009,07,04,04,10,14.30
2009,07,04,04,11,14.30
2009,07,04,04,12,14.30
2009,07,04,04,13,14.30
2009,07,04,04,14,14.30
2009,07,04,04,15,14.30
2009,07,04,04,16,14.30
2009,07,04,04,17,14.30
2009,07,04,04,18,14.30
2009,07,04,04,19,14.20
2009,07,04,04,20,14.20
2009,07,04,04,21,14.20
2009,07,04,04,22,14.20
2009,07,04,04,23,14.20
2009,07,04,04,24,14.20
2009,07,04,04,25,14.10
2009,07,04,04,26,14.10
2009,07,04,04,27,14.10
2009,07,04,04,28,14.10
2009,07,04,04,29,14.10
2009,07,04,04,30,14.10
2009,07,04,04,31,14.10
2009,07,04,04,32,14.10
2009,07,04,04,33,14.10
2009,07,04,04,34,14.10
2009,07,04,04,35,14.10
2009,07,04,04,36,14.10
2009,07,04,04,37,14.10
2009,07,04,04,38,14.10
2009,07,04,04,39,14.10
2009,07,04,04,40,14.10
2009,07,04,04,41,14.10
2009,07,04,04,42,14.10
2009,07,04,04,43,14.10
2009,07,04,04,44,14.10
2009,07,04,04,45,14.10
2009,07,04,04,46,14.10
2009,07,04,04,47,14.10
2009,07,04,04,48,14.00
2009,07,04,04,49,14.00
2009,07,04,04,50,14.00
2009,07,04,04,51,13.90
2009,07,04,04,52,13.90
2009,07,04,04,53,13.90
2009,07,04,04,54,13.90
2009,07,04,04,55,13.90
2009,07,04,04,56,13.90
2009,07,04,04,57,13.90
2009,07,04,04,58,13.90
2009,07,04,04,59,13.90
2009,07,04,05,00,13.90
2009,07,04,05,01,13.80
2009,07,04,05,02,13.80
2009,07,04,05,03,13.80
2009,07,04,05,04,13.80
2009,07,04,05,05,13.80
2009,07,04,05,06,13.80
2009,07,04,05,07,13.80
2009,07,04,05,08,13.70
2009,07,04,05,09,13.70
2009,07,04,05,10,13.70
2009,07,04,05,11,13.70
2009,07,04,05,12,13.70
2009,07,04,05,13,13.60
2009,07,04,05,14,13.60
2009,07,04,05,15,13.60
2009,07,04,05,16,13.60
2009,07,04,05,17,13.50
2009,07,04,05,18,13.50
2009,07,04,05,19,13.50
2009,07,04,05,20,13.40
2009,07,04,05,21,13.40
2009,07,04,05,22,13.40
2009,07,04,05,23,13.40
2009,07,04,05,24,13.40
2009,07,04,05,25,13.40
2009,07,04,05,26,13.40
2009,07,04,05,27,13.40
2009,07,04,05,28,13.40
2009,07,04,05,29,13.40
2009,07,04,05,30,13.40
2009,07,04,05,31,13.40
2009,07,04,05,32,13.40
2009,07,04,05,33,13.40
2009,07,04,05,34,13.40
2009,07,04,05,35,13.40
2009,07,04,05,36,13.40
2009,07,04,05,37,13.30
2009,07,04,05,38,13.30
2009,07,04,05,39,13.30
2009,07,04,05,40,13.30
2009,07,04,05,41,13.30
2009,07,04,05,42,13.30
2009,07,04,05,43,13.30
2009,07,04,05,44,13.30
2009,07,04,05,45,13.20
2009,07,04,05,46,13.20
2009,07,04,05,47,13.20
2009,07,04,05,48,13.30
2009,07,04,05,49,13.30
2009,07,04,05,50,13.30
2009,07,04,05,51,13.30
2009,07,04,05,52,13.30
2009,07,04,05,53,13.30
2009,07,04,05,54,13.40
2009,07,04,05,55,13.40
2009,07,04,05,56,13.40
2009,07,04,05,57,13.40
2009,07,04,05,58,13.40
2009,07,04,05,59,13.40
2009,07,04,06,00,13.40
2009,07,04,06,01,13.40
2009,07,04,06,02,13.40
2009,07,04,06,03,13.40
2009,07,04,06,04,13.40
2009,07,04,06,05,13.40
2009,07,04,06,06,13.50
2009,07,04,06,07,13.50
2009,07,04,06,08,13.50
2009,07,04,06,09,13.50
2009,07,04,06,10,13.50
2009,07,04,06,11,13.50
2009,07,04,06,12,13.60
2009,07,04,06,13,13.60
2009,07,04,06,14,13.60
2009,07,04,06,15,13.60
2009,07,04,06,16,13.60
2009,07,04,06,17,13.60
2009,07,04,06,18,13.60
2009,07,04,06,19,13.60
2009,07,04,06,20,13.70
2009,07,04,06,21,13.70
2009,07,04,06,22,13.70
2009,07,04,06,23,13.80
2009,07,04,06,24,13.80
2009,07,04,06,25,13.80
2009,07,04,06,26,13.80
2009,07,04,06,27,13.90
2009,07,04,06,28,13.90
2009,07,04,06,29,13.90
2009,07,04,06,30,13.90
2009,07,04,06,31,13.90
2009,07,04,06,32,13.90
2009,07,04,06,33,14.00
2009,07,04,06,34,14.00
2009,07,04,06,35,14.00
2009,07,04,06,36,14.00
2009,07,04,06,37,14.10
2009,07,04,06,38,14.10
2009,07,04,06,39,14.10
2009,07,04,06,40,14.10
2009,07,04,06,41,14.10
2009,07,04,06,42,14.10
2009,07,04,06,43,14.10
2009,07,04,06,44,14.10
2009,07,04,06,45,14.10
2009,07,04,06,46,14.20
2009,07,04,06,47,14.20
2009,07,04,06,48,14.20
2009,07,04,06,49,14.20
2009,07,04,06,50,14.20
2009,07,04,06,51,14.30
2009,07,04,06,52,14.30
2009,07,04,06,53,14.30
2009,07,04,06,54,14.30
2009,07,04,06,55,14.30
2009,07,04,06,56,14.30
2009,07,04,06,57,14.30
2009,07,04,06,58,14.30
2009,07,04,06,59,14.40
2009,07,04,07,00,14.40
2009,07,04,07,01,14.40
2009,07,04,07,02,14.40
2009,07,04,07,03,14.40
2009,07,04,07,04,14.50
2009,07,04,07,05,14.50
2009,07,04,07,06,14.60
2009,07,04,07,07,14.60
2009,07,04,07,08,14.70
2009,07,04,07,09,14.70
2009,07,04,07,10,14.70
2009,07,04,07,11,14.70
2009,07,04,07,12,14.80
2009,07,04,07,13,14.80
2009,07,04,07,14,14.80
2009,07,04,07,15,14.90
2009,07,04,07,16,14.90
2009,07,04,07,17,15.00
2009,07,04,07,18,15.00
2009,07,04,07,19,15.00
2009,07,04,07,20,15.00
2009,07,04,07,21,15.00
2009,07,04,07,22,15.00
2009,07,04,07,23,15.00
2009,07,04,07,24,15.00
2009,07,04,07,25,15.00
2009,07,04,07,26,15.00
2009,07,04,07,27,15.10
2009,07,04,07,28,15.10
2009,07,04,07,29,15.10
2009,07,04,07,30,15.20
2009,07,04,07,31,15.20
2009,07,04,07,32,15.20
2009,07,04,07,33,15.20
2009,07,04,07,34,15.30
2009,07,04,07,35,15.30
2009,07,04,07,36,15.30
2009,07,04,07,37,15.30
2009,07,04,07,38,15.40
2009,07,04,07,39,15.40
2009,07,04,07,40,15.40
2009,07,04,07,41,15.40
2009,07,04,07,42,15.50
2009,07,04,07,43,15.50
2009,07,04,07,44,15.60
2009,07,04,07,45,15.60
2009,07,04,07,46,15.60
2009,07,04,07,47,15.70
2009,07,04,07,48,15.70
2009,07,04,07,49,15.70
2009,07,04,07,50,15.80
2009,07,04,07,51,15.80
2009,07,04,07,52,15.80
2009,07,04,07,53,15.90
2009,07,04,07,54,16.00
2009,07,04,07,55,16.00
2009,07,04,07,56,16.10
2009,07,04,07,57,16.20
2009,07,04,07,58,16.20
2009,07,04,07,59,16.30
2009,07,04,08,00,16.30
2009,07,04,08,01,16.30
2009,07,04,08,02,16.40
2009,07,04,08,03,16.40
2009,07,04,08,04,16.50
2009,07,04,08,05,16.50
2009,07,04,08,06,16.60
2009,07,04,08,07,16.60
2009,07,04,08,08,16.60
2009,07,04,08,09,16.70
2009,07,04,08,10,16.70
2009,07,04,08,11,16.70
2009,07,04,08,12,16.80
2009,07,04,08,13,16.80
2009,07,04,08,14,16.80
2009,07,04,08,15,16.90
2009,07,04,08,16,16.90
2009,07,04,08,17,17.00
2009,07,04,08,18,17.00
2009,07,04,08,19,17.10
2009,07,04,08,20,17.10
2009,07,04,08,21,17.20
2009,07,04,08,22,17.20
2009,07,04,08,23,17.30
2009,07,04,08,24,17.30
2009,07,04,08,25,17.40
2009,07,04,08,26,17.50
2009,07,04,08,27,17.50
2009,07,04,08,28,17.60
2009,07,04,08,29,17.70
2009,07,04,08,30,17.80
2009,07,04,08,31,17.80
2009,07,04,08,32,17.90
2009,07,04,08,33,18.00
2009,07,04,08,34,18.10
2009,07,04,08,35,18.20
2009,07,04,08,36,18.20
2009,07,04,08,37,18.30
2009,07,04,08,38,18.40
2009,07,04,08,39,18.50
2009,07,04,08,40,18.60
2009,07,04,08,41,18.60
2009,07,04,08,42,18.70
2009,07,04,08,43,18.80
2009,07,04,08,44,18.90
2009,07,04,08,45,18.90
2009,07,04,08,46,19.00
2009,07,04,08,47,19.00
2009,07,04,08,48,19.10
2009,07,04,08,49,19.20
2009,07,04,08,50,19.20
2009,07,04,08,51,19.30
2009,07,04,08,52,19.30
2009,07,04,08,53,19.40
2009,07,04,08,54,19.40
2009,07,04,08,55,19.50
2009,07,04,08,56,19.60
2009,07,04,08,57,19.60
2009,07,04,08,58,19.70
2009,07,04,08,59,19.80
2009,07,04,09,00,19.90
2009,07,04,09,01,19.90
2009,07,04,09,02,20.00
2009,07,04,09,03,20.10
2009,07,04,09,04,20.20
2009,07,04,09,05,20.20
2009,07,04,09,06,20.30
2009,07,04,09,07,20.40
2009,07,04,09,08,20.40
2009,07,04,09,09,20.50
2009,07,04,09,10,20.60
2009,07,04,09,11,20.70
2009,07,04,09,12,20.70
2009,07,04,09,13,20.80
2009,07,04,09,14,20.90
2009,07,04,09,15,21.00
2009,07,04,09,16,21.10
2009,07,04,09,17,21.10
2009,07,04,09,18,21.20
2009,07,04,09,19,21.30
2009,07,04,09,20,21.40
2009,07,04,09,21,21.50
2009,07,04,09,22,21.60
2009,07,04,09,23,21.80
2009,07,04,09,24,21.80
2009,07,04,09,25,21.90
2009,07,04,09,26,22.00
2009,07,04,09,27,22.10
2009,07,04,09,28,22.20
2009,07,04,09,29,22.40
2009,07,04,09,30,22.50
2009,07,04,09,31,22.50
2009,07,04,09,32,22.60
2009,07,04,09,33,22.60
2009,07,04,09,34,22.70
2009,07,04,09,35,22.70
2009,07,04,09,36,22.80
2009,07,04,09,37,22.80
2009,07,04,09,38,22.90
2009,07,04,09,39,22.90
2009,07,04,09,40,22.90
2009,07,04,09,41,22.90
2009,07,04,09,42,22.90
2009,07,04,09,43,22.90
2009,07,04,09,44,22.90
2009,07,04,09,45,22.90
2009,07,04,09,46,23.00
2009,07,04,09,47,23.00
2009,07,04,09,48,23.00
2009,07,04,09,49,23.00
2009,07,04,09,50,23.00
2009,07,04,09,51,23.10
2009,07,04,09,52,23.10
2009,07,04,09,53,23.20
2009,07,04,09,54,23.20
2009,07,04,09,55,23.30
2009,07,04,09,56,23.30
2009,07,04,09,57,23.40
2009,07,04,09,58,23.40
2009,07,04,09,59,23.40
2009,07,04,10,00,23.50
2009,07,04,10,01,23.50
2009,07,04,10,02,23.50
2009,07,04,10,03,23.50
2009,07,04,10,04,23.50
2009,07,04,10,05,23.60
2009,07,04,10,06,23.60
2009,07,04,10,07,23.70
2009,07,04,10,08,23.70
2009,07,04,10,09,23.70
2009,07,04,10,10,23.80
2009,07,04,10,11,23.80
2009,07,04,10,12,23.80
2009,07,04,10,13,23.70
2009,07,04,10,14,23.70
2009,07,04,10,15,23.70
2009,07,04,10,16,23.70
2009,07,04,10,17,23.70
2009,07,04,10,18,23.80
2009,07,04,10,19,23.80
2009,07,04,10,20,23.80
2009,07,04,10,21,23.80
2009,07,04,10,22,23.80
2009,07,04,10,23,23.70
2009,07,04,10,24,23.70
2009,07,04,10,25,23.80
2009,07,04,10,26,23.80
2009,07,04,10,27,23.80
2009,07,04,10,28,23.80
2009,07,04,10,29,23.90
2009,07,04,10,30,23.90
2009,07,04,10,31,23.90
2009,07,04,10,32,24.00
2009,07,04,10,33,24.00
2009,07,04,10,34,24.10
2009,07,04,10,35,24.10
2009,07,04,10,36,24.10
2009,07,04,10,37,24.20
2009,07,04,10,38,24.20
2009,07,04,10,39,24.20
2009,07,04,10,40,24.30
2009,07,04,10,41,24.30
2009,07,04,10,42,24.40
2009,07,04,10,43,24.40
2009,07,04,10,44,24.50
2009,07,04,10,45,24.50
2009,07,04,10,46,24.60
2009,07,04,10,47,24.60
2009,07,04,10,48,24.70
2009,07,04,10,49,24.70
2009,07,04,10,50,24.70
2009,07,04,10,51,24.70
2009,07,04,10,52,24.80
2009,07,04,10,53,24.80
2009,07,04,10,54,24.80
2009,07,04,10,55,24.80
2009,07,04,10,56,24.90
2009,07,04,10,57,24.90
2009,07,04,10,58,25.00
2009,07,04,10,59,25.10
2009,07,04,11,00,25.10
2009,07,04,11,01,25.20
2009,07,04,11,02,25.20
2009,07,04,11,03,25.20
2009,07,04,11,04,25.20
2009,07,04,11,05,25.20
2009,07,04,11,06,25.10
2009,07,04,11,07,25.00
2009,07,04,11,08,25.00
2009,07,04,11,09,25.00
2009,07,04,11,10,25.00
2009,07,04,11,11,25.10
2009,07,04,11,12,25.10
2009,07,04,11,13,25.10
2009,07,04,11,14,25.10
2009,07,04,11,15,25.20
2009,07,04,11,16,25.20
2009,07,04,11,17,25.30
2009,07,04,11,18,25.30
2009,07,04,11,19,25.40
2009,07,04,11,20,25.40
2009,07,04,11,21,25.40
2009,07,04,11,22,25.50
2009,07,04,11,23,25.50
2009,07,04,11,24,25.50
2009,07,04,11,25,25.60
2009,07,04,11,26,25.60
2009,07,04,11,27,25.60
2009,07,04,11,28,25.60
2009,07,04,11,29,25.60
2009,07,04,11,30,25.60
2009,07,04,11,31,25.60
2009,07,04,11,32,25.60
2009,07,04,11,33,25.70
2009,07,04,11,34,25.70
2009,07,04,11,35,25.70
2009,07,04,11,36,25.70
2009,07,04,11,37,25.70
2009,07,04,11,38,25.70
2009,07,04,11,39,25.70
2009,07,04,11,40,25.70
2009,07,04,11,41,25.80
2009,07,04,11,42,25.80
2009,07,04,11,43,25.90
2009,07,04,11,44,25.90
2009,07,04,11,45,25.90
2009,07,04,11,46,25.90
2009,07,04,11,47,25.90
2009,07,04,11,48,25.90
2009,07,04,11,49,25.90
2009,07,04,11,50,25.90
2009,07,04,11,51,25.90
2009,07,04,11,52,25.90
2009,07,04,11,53,25.90
2009,07,04,11,54,25.90
2009,07,04,11,55,26.00
2009,07,04,11,56,26.00
2009,07,04,11,57,26.00
2009,07,04,11,58,25.90
2009,07,04,11,59,25.90
2009,07,04,12,00,25.90
2009,07,04,12,01,25.90
2009,07,04,12,02,25.90
2009,07,04,12,03,25.90
2009,07,04,12,04,25.90
2009,07,04,12,05,25.90
2009,07,04,12,06,25.90
2009,07,04,12,07,25.90
2009,07,04,12,08,26.00
2009,07,04,12,09,26.00
2009,07,04,12,10,26.00
2009,07,04,12,11,25.90
2009,07,04,12,12,25.90
2009,07,04,12,13,25.90
2009,07,04,12,14,25.90
2009,07,04,12,15,25.80
2009,07,04,12,16,25.80
2009,07,04,12,17,25.80
2009,07,04,12,18,25.70
2009,07,04,12,19,25.70
2009,07,04,12,20,25.70
2009,07,04,12,21,25.70
2009,07,04,12,22,25.80
2009,07,04,12,23,25.80
2009,07,04,12,24,25.80
2009,07,04,12,25,25.80
2009,07,04,12,26,25.80
2009,07,04,12,27,25.90
2009,07,04,12,28,25.90
2009,07,04,12,29,25.90
2009,07,04,12,30,25.90
2009,07,04,12,31,26.00
2009,07,04,12,32,26.00
2009,07,04,12,33,26.10
2009,07,04,12,34,26.10
2009,07,04,12,35,25.90
2009,07,04,12,36,25.90
2009,07,04,12,37,25.90
2009,07,04,12,38,25.90
2009,07,04,12,39,25.90
2009,07,04,12,40,25.90
2009,07,04,12,41,25.90
2009,07,04,12,42,26.00
2009,07,04,12,43,26.00
2009,07,04,12,44,26.10
2009,07,04,12,45,26.20
2009,07,04,12,46,26.30
2009,07,04,12,47,26.30
2009,07,04,12,48,26.40
2009,07,04,12,49,26.40
2009,07,04,12,50,26.40
2009,07,04,12,51,26.30
2009,07,04,12,52,26.30
2009,07,04,12,53,26.20
2009,07,04,12,54,26.20
2009,07,04,12,55,26.20
2009,07,04,12,56,26.20
2009,07,04,12,57,26.30
2009,07,04,12,58,26.40
2009,07,04,12,59,26.40
2009,07,04,13,00,26.50
2009,07,04,13,01,26.50
2009,07,04,13,02,26.60
2009,07,04,13,03,26.60
2009,07,04,13,04,26.60
2009,07,04,13,05,26.60
2009,07,04,13,06,26.60
2009,07,04,13,07,26.70
2009,07,04,13,08,26.70
2009,07,04,13,09,26.70
2009,07,04,13,10,26.70
2009,07,04,13,11,26.70
2009,07,04,13,12,26.70
2009,07,04,13,13,26.70
2009,07,04,13,14,26.80
2009,07,04,13,15,26.80
2009,07,04,13,16,26.80
2009,07,04,13,17,26.80
2009,07,04,13,18,26.80
2009,07,04,13,19,26.90
2009,07,04,13,20,26.90
2009,07,04,13,21,27.00
2009,07,04,13,22,27.10
2009,07,04,13,23,27.10
2009,07,04,13,24,27.20
2009,07,04,13,25,27.20
2009,07,04,13,26,27.20
2009,07,04,13,27,27.30
2009,07,04,13,28,27.30
2009,07,04,13,29,27.30
2009,07,04,13,30,27.30
2009,07,04,13,31,27.30
2009,07,04,13,32,27.30
2009,07,04,13,33,27.40
2009,07,04,13,34,27.40
2009,07,04,13,35,27.40
2009,07,04,13,36,27.40
2009,07,04,13,37,27.40
2009,07,04,13,38,27.40
2009,07,04,13,39,27.30
2009,07,04,13,40,27.30
2009,07,04,13,41,27.30
2009,07,04,13,42,27.30
2009,07,04,13,43,27.30
2009,07,04,13,44,27.40
2009,07,04,13,45,27.50
2009,07,04,13,46,27.50
2009,07,04,13,47,27.50
2009,07,04,13,48,27.40
2009,07,04,13,49,27.40
2009,07,04,13,50,27.40
2009,07,04,13,51,27.40
2009,07,04,13,52,27.40
2009,07,04,13,53,27.30
2009,07,04,13,54,27.40
2009,07,04,13,55,27.40
2009,07,04,13,56,27.50
2009,07,04,13,57,27.60
2009,07,04,13,58,27.60
2009,07,04,13,59,27.70
2009,07,04,14,00,27.70
2009,07,04,14,01,27.70
2009,07,04,14,02,27.80
2009,07,04,14,03,27.70
2009,07,04,14,04,27.70
2009,07,04,14,05,27.70
2009,07,04,14,06,27.70
2009,07,04,14,07,27.60
2009,07,04,14,08,27.60
2009,07,04,14,09,27.60
2009,07,04,14,10,27.60
2009,07,04,14,11,27.70
2009,07,04,14,12,27.70
2009,07,04,14,13,27.70
2009,07,04,14,14,27.80
2009,07,04,14,15,27.80
2009,07,04,14,16,27.80
2009,07,04,14,17,27.80
2009,07,04,14,18,27.80
2009,07,04,14,19,27.70
2009,07,04,14,20,27.70
2009,07,04,14,21,27.80
2009,07,04,14,22,27.80
2009,07,04,14,23,27.80
2009,07,04,14,24,27.90
2009,07,04,14,25,27.90
2009,07,04,14,26,27.90
2009,07,04,14,27,27.90
2009,07,04,14,28,27.80
2009,07,04,14,29,27.80
2009,07,04,14,30,27.80
2009,07,04,14,31,27.80
2009,07,04,14,32,27.80
2009,07,04,14,33,27.80
2009,07,04,14,34,27.90
2009,07,04,14,35,27.90
2009,07,04,14,36,28.00
2009,07,04,14,37,28.20
2009,07,04,14,38,28.30
2009,07,04,14,39,28.30
2009,07,04,14,40,28.40
2009,07,04,14,41,28.40
2009,07,04,14,42,28.40
2009,07,04,14,43,28.50
2009,07,04,14,44,28.60
2009,07,04,14,45,28.60
2009,07,04,14,46,28.60
2009,07,04,14,47,28.60
2009,07,04,14,48,28.60
2009,07,04,14,49,28.60
2009,07,04,14,50,28.70
2009,07,04,14,51,28.60
2009,07,04,14,52,28.50
2009,07,04,14,53,28.40
2009,07,04,14,54,28.30
2009,07,04,14,55,28.20
2009,07,04,14,56,28.20
2009,07,04,14,57,28.20
2009,07,04,14,58,28.30
2009,07,04,14,59,28.30
2009,07,04,15,00,28.40
2009,07,04,15,01,28.40
2009,07,04,15,02,28.40
2009,07,04,15,03,28.50
2009,07,04,15,04,28.60
2009,07,04,15,05,28.70
2009,07,04,15,06,28.70
2009,07,04,15,07,28.80
2009,07,04,15,08,28.80
2009,07,04,15,09,28.90
2009,07,04,15,10,28.90
2009,07,04,15,11,28.90
2009,07,04,15,12,29.00
2009,07,04,15,13,29.10
2009,07,04,15,14,29.20
2009,07,04,15,15,29.20
2009,07,04,15,16,29.30
2009,07,04,15,17,29.30
2009,07,04,15,18,29.40
2009,07,04,15,19,29.40
2009,07,04,15,20,29.30
2009,07,04,15,21,29.00
2009,07,04,15,22,28.90
2009,07,04,15,23,28.80
2009,07,04,15,24,28.80
2009,07,04,15,25,28.90
2009,07,04,15,26,29.00
2009,07,04,15,27,29.00
2009,07,04,15,28,29.10
2009,07,04,15,29,29.10
2009,07,04,15,30,29.20
2009,07,04,15,31,29.30
2009,07,04,15,32,29.30
2009,07,04,15,33,29.30
2009,07,04,15,34,29.30
2009,07,04,15,35,29.40
2009,07,04,15,36,29.30
2009,07,04,15,37,29.30
2009,07,04,15,38,29.30
2009,07,04,15,39,29.30
2009,07,04,15,40,29.30
2009,07,04,15,41,29.20
2009,07,04,15,42,29.20
2009,07,04,15,43,29.20
2009,07,04,15,44,29.20
2009,07,04,15,45,29.20
2009,07,04,15,46,29.30
2009,07,04,15,47,29.30
2009,07,04,15,48,29.40
2009,07,04,15,49,29.50
2009,07,04,15,50,29.60
2009,07,04,15,51,29.60
2009,07,04,15,52,29.60
2009,07,04,15,53,29.60
2009,07,04,15,54,29.60
2009,07,04,15,55,29.60
2009,07,04,15,56,29.60
2009,07,04,15,57,29.70
2009,07,04,15,58,29.70
2009,07,04,15,59,29.80
2009,07,04,16,00,29.80
2009,07,04,16,01,29.90
2009,07,04,16,02,29.90
2009,07,04,16,03,30.00
2009,07,04,16,04,30.00
2009,07,04,16,05,30.00
2009,07,04,16,06,30.00
2009,07,04,16,07,30.00
2009,07,04,16,08,30.10
2009,07,04,16,09,30.10
2009,07,04,16,10,30.00
2009,07,04,16,11,29.90
2009,07,04,16,12,29.80
2009,07,04,16,13,29.70
2009,07,04,16,14,29.70
2009,07,04,16,15,29.60
2009,07,04,16,16,29.60
2009,07,04,16,17,29.50
2009,07,04,16,18,29.50
2009,07,04,16,19,29.60
2009,07,04,16,20,29.60
2009,07,04,16,21,29.60
2009,07,04,16,22,29.70
2009,07,04,16,23,29.70
2009,07,04,16,24,29.60
2009,07,04,16,25,29.50
2009,07,04,16,26,29.50
2009,07,04,16,27,29.50
2009,07,04,16,28,29.60
2009,07,04,16,29,29.60
2009,07,04,16,30,29.60
2009,07,04,16,31,29.70
2009,07,04,16,32,29.70
2009,07,04,16,33,29.80
2009,07,04,16,34,29.80
2009,07,04,16,35,29.80
2009,07,04,16,36,29.80
2009,07,04,16,37,29.80
2009,07,04,16,38,29.80
2009,07,04,16,39,29.70
2009,07,04,16,40,29.70
2009,07,04,16,41,29.70
2009,07,04,16,42,29.70
2009,07,04,16,43,29.70
2009,07,04,16,44,29.70
2009,07,04,16,45,29.70
2009,07,04,16,46,29.70
2009,07,04,16,47,29.70
2009,07,04,16,48,29.70
2009,07,04,16,49,29.80
2009,07,04,16,50,29.80
2009,07,04,16,51,29.80
2009,07,04,16,52,29.70
2009,07,04,16,53,29.70
2009,07,04,16,54,29.70
2009,07,04,16,55,29.70
2009,07,04,16,56,29.70
2009,07,04,16,57,29.70
2009,07,04,16,58,29.70
2009,07,04,16,59,29.80
2009,07,04,17,00,29.80
2009,07,04,17,01,29.80
2009,07,04,17,02,29.90
2009,07,04,17,03,30.00
2009,07,04,17,04,30.10
2009,07,04,17,05,30.10
2009,07,04,17,06,30.10
2009,07,04,17,07,30.10
2009,07,04,17,08,30.10
2009,07,04,17,09,30.10
2009,07,04,17,10,30.10
2009,07,04,17,11,30.10
2009,07,04,17,12,30.10
2009,07,04,17,13,30.10
2009,07,04,17,14,30.20
2009,07,04,17,15,30.20
2009,07,04,17,16,30.20
2009,07,04,17,17,30.20
2009,07,04,17,18,30.30
2009,07,04,17,19,30.30